GW5845 Weather Reports


time (UTC)temp
F
wind
direction
speed
knots
gust
knots
rain 1hr
in
rain 24hr
in
rain mn
in
humidity
%
barometer
mb
20260504081754 45 150 0.0 0.0 0.00 0.00 0.00 77 1014.2
20260504081250 46 150 0.0 0.0 0.00 0.00 0.00 76 1014.2
20260504080747 46 150 0.0 0.9 0.00 0.00 0.00 76 1014.2
20260504080243 46 150 0.9 0.9 0.00 0.00 0.00 76 1014.2
20260504070211 46 115 0.9 1.7 0.00 0.00 0.00 75 1014.3
20260504060131 45 146 0.9 0.9 0.00 0.00 0.00 78 1014.5
20260504050600 45 122 1.7 1.7 0.00 0.00 0.00 78 1014.7
20260504045553 44 111 0.9 0.9 0.00 0.00 0.00 77 1014.5
20260504045048 44 77 0.9 0.9 0.00 0.00 0.00 76 1014.7
20260504044547 44 81 0.0 0.0 0.00 0.00 0.00 76 1014.8
20260504044043 44 81 0.0 0.0 0.00 0.00 0.00 76 1014.7
20260504043540 44 68 0.9 0.9 0.00 0.00 0.00 75 1014.8
20260504043038 43 107 0.0 0.0 0.00 0.00 0.00 77 1014.8
20260504042534 43 107 0.0 0.0 0.00 0.00 0.00 79 1014.8
20260504042031 43 108 0.0 0.0 0.00 0.00 0.00 79 1014.7
20260504041527 42 107 0.0 0.0 0.00 0.00 0.00 79 1014.8
20260504041023 42 110 0.9 0.9 0.00 0.00 0.00 78 1014.7
20260504040521 42 107 0.9 0.9 0.00 0.00 0.00 78 1014.8
20260504040018 42 83 0.0 0.0 0.00 0.00 0.00 78 1014.8
20260504035515 41 81 0.0 0.0 0.00 0.00 0.00 78 1015.0
20260504035011 41 84 0.9 0.9 0.00 0.00 0.00 78 1014.9
20260504034509 41 91 0.0 0.0 0.00 0.00 0.00 77 1014.7
20260504034006 41 100 0.0 0.0 0.00 0.00 0.00 77 1014.8
20260504033503 41 81 0.0 0.0 0.00 0.00 0.00 76 1014.8
20260504033000 41 81 0.0 0.9 0.00 0.00 0.00 76 1014.8
20260504032457 41 72 0.0 0.0 0.00 0.00 0.00 76 1014.7
20260504031954 42 85 0.0 0.0 0.00 0.00 0.00 76 1014.6
20260504031451 42 113 0.0 0.0 0.00 0.00 0.00 77 1014.6
20260504030947 42 106 0.9 0.9 0.00 0.00 0.00 76 1014.7
20260504030445 42 102 0.0 0.9 0.00 0.00 0.00 76 1014.5
20260504025940 42 164 1.7 1.7 0.00 0.00 0.00 77 1014.5
20260504025437 44 161 1.7 1.7 0.00 0.00 0.00 71 1014.5
20260504024935 44 59 0.9 1.7 0.00 0.00 0.00 70 1014.5
20260504024431 43 56 0.0 0.9 0.00 0.00 0.00 72 1014.6
20260504023928 43 58 0.9 0.9 0.00 0.00 0.00 71 1014.8
20260504023425 43 80 0.0 0.9 0.00 0.00 0.00 69 1014.7
20260504022920 43 57 0.0 0.9 0.00 0.00 0.00 70 1014.6
20260504022417 44 66 0.9 0.9 0.00 0.00 0.00 69 1014.3
20260504021914 44 107 0.9 0.9 0.00 0.00 0.00 72 1014.5
20260504021411 45 106 0.0 0.0 0.00 0.00 0.00 70 1014.5
20260504020908 45 61 0.0 0.0 0.00 0.00 0.00 65 1014.4
20260504020405 45 61 0.0 0.9 0.00 0.00 0.00 66 1014.2
20260504015901 45 51 0.9 0.9 0.00 0.00 0.00 68 1014.3
20260504015357 45 49 0.9 0.9 0.00 0.00 0.00 67 1014.2
20260504014853 45 53 0.0 0.0 0.00 0.00 0.00 65 1014.0
20260504014349 45 53 0.9 0.9 0.00 0.00 0.00 65 1014.1
20260504013847 46 54 0.0 0.9 0.00 0.00 0.00 65 1014.1
20260504013345 45 53 0.9 0.9 0.00 0.00 0.00 65 1014.0
20260504012841 46 63 0.0 0.9 0.00 0.00 0.00 66 1013.9
20260504012339 46 67 0.0 0.9 0.00 0.00 0.00 65 1013.9
20260504011836 46 66 0.0 0.9 0.00 0.00 0.00 63 1014.0
20260504011333 46 66 0.0 0.9 0.00 0.00 0.00 63 1013.6
20260504010829 46 110 0.0 0.0 0.00 0.00 0.00 63 1013.8
20260504010324 48 111 0.0 0.0 0.00 0.00 0.00 67 1013.8
20260504005821 48 111 0.0 0.0 0.00 0.00 0.00 61 1013.7
20260504005318 49 104 0.0 0.0 0.00 0.00 0.00 59 1013.4
20260504004816 49 100 0.9 0.9 0.00 0.00 0.00 57 1013.7
20260504004313 50 83 0.0 0.9 0.00 0.00 0.00 57 1013.4
20260504003809 50 83 0.0 0.9 0.00 0.00 0.00 58 1013.5
20260504003307 50 78 0.0 0.0 0.00 0.00 0.00 58 1013.6
20260504002803 51 110 0.9 0.9 0.00 0.00 0.00 56 1013.6
20260504002300 52 56 0.0 0.0 0.00 0.00 0.00 53 1013.6
20260504001758 52 56 0.9 0.9 0.00 0.00 0.00 52 1013.5
20260504001255 53 58 0.0 0.9 0.00 0.00 0.00 51 1013.8
20260504000751 54 65 0.9 0.9 0.00 0.00 0.00 51 1013.4
20260504000248 55 71 0.0 0.9 0.00 0.00 0.00 48 1013.4
20260503235746 55 62 0.9 0.9 0.00 0.00 0.00 47 1013.3
20260503235243 56 72 0.0 0.9 0.00 0.00 0.00 43 1013.7
20260503234741 57 73 0.9 0.9 0.00 0.00 0.00 44 1013.3
20260503234239 58 86 0.0 0.0 0.00 0.00 0.00 39 1013.6
20260503233736 59 103 0.0 0.0 0.00 0.00 0.00 37 1013.4
20260503233231 59 78 0.9 0.9 0.00 0.00 0.00 36 1013.5
20260503232728 60 143 0.9 0.9 0.00 0.00 0.00 36 1013.4
20260503232226 60 101 0.0 0.0 0.00 0.00 0.00 35 1013.5
20260503231724 60 130 0.9 0.9 0.00 0.00 0.00 35 1013.3
20260503231220 62 59 0.0 0.0 0.00 0.00 0.00 33 1013.2
20260503230716 62 60 0.0 0.0 0.00 0.00 0.00 34 1013.1
20260503230214 62 271 2.6 2.6 0.00 0.00 0.00 32 1013.3
20260503225711 62 357 0.9 0.9 0.00 0.00 0.00 35 1013.1
20260503225211 62 11 1.7 1.7 0.00 0.00 0.00 33 1013.2
20260503224709 62 201 3.5 4.3 0.00 0.00 0.00 33 1013.2
20260503224207 63 217 2.6 2.6 0.00 0.00 0.00 32 1013.1
20260503223704 62 158 0.9 1.7 0.00 0.00 0.00 31 1012.9
20260503223201 63 129 0.9 0.9 0.00 0.00 0.00 32 1013.3
20260503222658 62 64 0.9 0.9 0.00 0.00 0.00 32 1013.2
20260503222155 62 208 4.3 5.2 0.00 0.00 0.00 31 1013.1
20260503221654 63 9 0.9 1.7 0.00 0.00 0.00 32 1013.3
20260503221151 63 293 3.5 5.2 0.00 0.00 0.00 31 1013.3
20260503220647 62 336 1.7 1.7 0.00 0.00 0.00 32 1013.5
20260503220144 62 253 3.5 6.1 0.00 0.00 0.00 31 1013.4
20260503215641 62 346 2.6 4.3 0.00 0.00 0.00 31 1013.3
20260503215137 62 336 3.5 6.1 0.00 0.00 0.00 31 1013.3
20260503214636 62 338 1.7 1.7 0.00 0.00 0.00 32 1013.3
20260503214132 62 251 4.3 6.1 0.00 0.00 0.00 31 1013.5
20260503213626 63 297 2.6 2.6 0.00 0.00 0.00 31 1013.4
20260503213122 62 240 3.5 4.3 0.00 0.00 0.00 33 1013.3
20260503212620 62 311 6.1 7.0 0.00 0.00 0.00 33 1013.4
20260503212117 62 311 5.2 6.1 0.00 0.00 0.00 32 1013.4
20260503211614 62 145 1.7 1.7 0.00 0.00 0.00 36 1013.3
20260503211109 62 228 2.6 4.3 0.00 0.00 0.00 36 1013.4
20260503210606 61 352 2.6 2.6 0.00 0.00 0.00 31 1013.4
20260503205558 62 253 2.6 4.3 0.00 0.00 0.00 35 1013.5
20260503205055 62 6 6.1 7.0 0.00 0.00 0.00 31 1013.6
20260503204552 63 7 2.6 4.3 0.00 0.00 0.00 32 1013.3
20260503204049 62 215 2.6 4.3 0.00 0.00 0.00 31 1013.5
20260503203546 62 351 1.7 1.7 0.00 0.00 0.00 32 1013.7
20260503203043 63 351 3.5 7.0 0.00 0.00 0.00 35 1013.5
20260503202541 61 332 7.0 7.8 0.00 0.00 0.00 33 1013.5
20260503202039 62 318 6.1 7.8 0.00 0.00 0.00 33 1013.4
20260503201537 61 45 2.6 2.6 0.00 0.00 0.00 34 1013.8
20260503201033 62 9 3.5 7.0 0.00 0.00 0.00 31 1013.8
20260503200529 62 240 7.8 9.6 0.00 0.00 0.00 33 1013.9
20260503200026 62 244 2.6 2.6 0.00 0.00 0.00 33 1013.9
20260503195524 62 25 2.6 2.6 0.00 0.00 0.00 33 1013.9
20260503195020 61 66 3.5 5.2 0.00 0.00 0.00 32 1014.1
20260503194518 60 340 11.3 13.9 0.00 0.00 0.00 32 1014.1
20260503194017 62 5 7.0 8.7 0.00 0.00 0.00 34 1014.3
20260503193514 62 237 4.3 5.2 0.00 0.00 0.00 35 1014.2
20260503193009 62 222 9.6 11.3 0.00 0.00 0.00 34 1014.3
20260503192506 61 283 0.9 1.7 0.00 0.00 0.00 35 1014.3
20260503192001 60 277 2.6 5.2 0.00 0.00 0.00 35 1014.4
20260503191459 61 284 2.6 2.6 0.00 0.00 0.00 33 1014.5
20260503190955 62 343 4.3 7.8 0.00 0.00 0.00 30 1014.8
20260503190453 59 75 3.5 5.2 0.00 0.00 0.00 31 1014.8
20260503185950 60 41 7.0 9.6 0.00 0.00 0.00 32 1014.7
20260503185446 61 317 0.9 1.7 0.00 0.00 0.00 35 1014.8
20260503184945 60 311 6.1 8.7 0.00 0.00 0.00 35 1014.9
20260503184442 60 40 2.6 4.3 0.00 0.00 0.00 35 1015.0
20260503183938 59 9 0.0 0.0 0.00 0.00 0.00 37 1015.0
20260503183435 60 285 1.7 2.6 0.00 0.00 0.00 36 1015.3
20260503182932 59 246 9.6 11.3 0.00 0.00 0.00 35 1014.9
20260503182431 59 328 1.7 2.6 0.00 0.00 0.00 35 1015.1
20260503181928 60 233 6.1 6.1 0.00 0.00 0.00 36 1015.1
20260503181425 60 266 1.7 1.7 0.00 0.00 0.00 36 1014.9
20260503180921 59 323 4.3 7.8 0.00 0.00 0.00 33 1015.4
20260503180420 60 355 3.5 7.8 0.00 0.00 0.00 37 1015.3
20260503175917 60 311 4.3 7.8 0.00 0.00 0.00 37 1015.5
20260503175415 59 231 3.5 6.1 0.00 0.00 0.00 37 1015.4
20260503174910 58 316 4.3 5.2 0.00 0.00 0.00 37 1015.7
20260503174409 59 5 5.2 6.1 0.00 0.00 0.00 39 1015.4
20260503173908 59 10 3.5 5.2 0.00 0.00 0.00 37 1015.4
20260503173405 58 295 4.3 7.0 0.00 0.00 0.00 41 1015.8
20260503172901 59 320 9.6 14.8 0.00 0.00 0.00 36 1015.4
20260503172359 58 177 1.7 1.7 0.00 0.00 0.00 45 1015.5
20260503171855 58 60 4.3 6.1 0.00 0.00 0.00 40 1015.5
20260503171352 58 326 3.5 6.1 0.00 0.00 0.00 40 1015.8
20260503170850 58 358 9.6 14.8 0.00 0.00 0.00 37 1015.8
20260503170346 57 269 5.2 6.1 0.00 0.00 0.00 40 1015.9
20260503150738 52 55 5.2 7.8 0.00 0.00 0.00 43 1017.2
20260503150234 53 266 5.2 7.0 0.00 0.00 0.00 43 1016.8
20260503140158 51 265 4.3 5.2 0.00 0.00 0.00 50 1017.2
20260503131128 46 345 7.8 8.7 0.00 0.00 0.00 53 1017.3
20260503130626 48 328 2.6 5.2 0.00 0.00 0.00 54 1017.2
20260503130123 47 311 5.2 7.0 0.00 0.00 0.00 54 1017.0
20260503110516 42 123 0.9 0.9 0.00 0.00 0.00 67 1016.1